Year,Month,Day,Hour,Minute,Value (Times are PST for temperature in C)
2017,09,04,00,00,15.70
2017,09,04,00,01,15.70
2017,09,04,00,02,15.70
2017,09,04,00,03,15.70
2017,09,04,00,04,15.70
2017,09,04,00,05,15.70
2017,09,04,00,06,15.70
2017,09,04,00,07,15.70
2017,09,04,00,08,15.70
2017,09,04,00,09,15.70
2017,09,04,00,10,15.70
2017,09,04,00,11,15.70
2017,09,04,00,12,15.70
2017,09,04,00,13,15.70
2017,09,04,00,14,15.70
2017,09,04,00,15,15.70
2017,09,04,00,16,15.70
2017,09,04,00,17,15.70
2017,09,04,00,18,15.80
2017,09,04,00,19,15.80
2017,09,04,00,20,15.80
2017,09,04,00,21,15.80
2017,09,04,00,22,15.80
2017,09,04,00,23,15.80
2017,09,04,00,24,15.80
2017,09,04,00,25,15.80
2017,09,04,00,26,15.80
2017,09,04,00,27,15.80
2017,09,04,00,28,15.80
2017,09,04,00,29,15.80
2017,09,04,00,30,15.80
2017,09,04,00,31,15.70
2017,09,04,00,32,15.70
2017,09,04,00,33,15.70
2017,09,04,00,34,15.80
2017,09,04,00,35,15.80
2017,09,04,00,36,15.90
2017,09,04,00,37,16.00
2017,09,04,00,38,16.00
2017,09,04,00,39,16.00
2017,09,04,00,40,16.00
2017,09,04,00,41,16.00
2017,09,04,00,42,16.00
2017,09,04,00,43,16.00
2017,09,04,00,44,15.90
2017,09,04,00,45,15.90
2017,09,04,00,46,15.90
2017,09,04,00,47,15.90
2017,09,04,00,48,15.90
2017,09,04,00,49,15.90
2017,09,04,00,50,15.90
2017,09,04,00,51,15.90
2017,09,04,00,52,15.90
2017,09,04,00,53,15.90
2017,09,04,00,54,15.90
2017,09,04,00,55,15.90
2017,09,04,00,56,15.90
2017,09,04,00,57,15.90
2017,09,04,00,58,15.90
2017,09,04,00,59,15.90
2017,09,04,01,00,15.90
2017,09,04,01,01,15.90
2017,09,04,01,02,15.80
2017,09,04,01,03,15.80
2017,09,04,01,04,15.80
2017,09,04,01,05,15.80
2017,09,04,01,06,15.80
2017,09,04,01,07,15.80
2017,09,04,01,08,15.80
2017,09,04,01,09,15.80
2017,09,04,01,10,15.80
2017,09,04,01,11,15.90
2017,09,04,01,12,15.90
2017,09,04,01,13,15.90
2017,09,04,01,14,15.90
2017,09,04,01,15,15.90
2017,09,04,01,16,15.90
2017,09,04,01,17,16.00
2017,09,04,01,18,16.10
2017,09,04,01,19,16.10
2017,09,04,01,20,16.20
2017,09,04,01,21,16.20
2017,09,04,01,22,16.20
2017,09,04,01,23,16.20
2017,09,04,01,24,16.20
2017,09,04,01,25,16.20
2017,09,04,01,26,16.20
2017,09,04,01,27,16.20
2017,09,04,01,28,16.20
2017,09,04,01,29,16.10
2017,09,04,01,30,16.10
2017,09,04,01,31,16.00
2017,09,04,01,32,16.00
2017,09,04,01,33,15.90
2017,09,04,01,34,15.80
2017,09,04,01,35,15.80
2017,09,04,01,36,15.80
2017,09,04,01,37,15.70
2017,09,04,01,38,15.70
2017,09,04,01,39,15.70
2017,09,04,01,40,15.80
2017,09,04,01,41,15.80
2017,09,04,01,42,15.80
2017,09,04,01,43,15.90
2017,09,04,01,44,15.90
2017,09,04,01,45,15.90
2017,09,04,01,46,15.90
2017,09,04,01,47,15.90
2017,09,04,01,48,15.90
2017,09,04,01,49,15.90
2017,09,04,01,50,15.90
2017,09,04,01,51,15.90
2017,09,04,01,52,15.80
2017,09,04,01,53,15.80
2017,09,04,01,54,15.80
2017,09,04,01,55,15.80
2017,09,04,01,56,15.80
2017,09,04,01,57,15.80
2017,09,04,01,58,15.80
2017,09,04,01,59,15.80
2017,09,04,02,00,15.80
2017,09,04,02,01,15.80
2017,09,04,02,02,15.90
2017,09,04,02,03,15.90
2017,09,04,02,04,16.00
2017,09,04,02,05,16.10
2017,09,04,02,06,16.10
2017,09,04,02,07,16.10
2017,09,04,02,08,16.10
2017,09,04,02,09,16.10
2017,09,04,02,10,16.10
2017,09,04,02,11,16.00
2017,09,04,02,12,16.00
2017,09,04,02,13,15.90
2017,09,04,02,14,15.90
2017,09,04,02,15,16.00
2017,09,04,02,16,16.00
2017,09,04,02,17,16.10
2017,09,04,02,18,16.10
2017,09,04,02,19,16.10
2017,09,04,02,20,16.10
2017,09,04,02,21,16.10
2017,09,04,02,22,16.10
2017,09,04,02,23,16.10
2017,09,04,02,24,16.10
2017,09,04,02,25,16.10
2017,09,04,02,26,16.10
2017,09,04,02,27,16.10
2017,09,04,02,28,16.10
2017,09,04,02,29,16.10
2017,09,04,02,30,16.00
2017,09,04,02,31,16.00
2017,09,04,02,32,16.00
2017,09,04,02,33,16.00
2017,09,04,02,34,16.00
2017,09,04,02,35,16.00
2017,09,04,02,36,16.00
2017,09,04,02,37,16.00
2017,09,04,02,38,16.10
2017,09,04,02,39,16.10
2017,09,04,02,40,16.10
2017,09,04,02,41,16.10
2017,09,04,02,42,16.10
2017,09,04,02,43,16.00
2017,09,04,02,44,16.00
2017,09,04,02,45,16.00
2017,09,04,02,46,15.90
2017,09,04,02,47,16.00
2017,09,04,02,48,15.90
2017,09,04,02,49,15.90
2017,09,04,02,50,15.90
2017,09,04,02,51,15.90
2017,09,04,02,52,16.00
2017,09,04,02,53,16.00
2017,09,04,02,54,16.00
2017,09,04,02,55,15.90
2017,09,04,02,56,15.90
2017,09,04,02,57,15.90
2017,09,04,02,58,15.90
2017,09,04,02,59,16.00
2017,09,04,03,00,16.00
2017,09,04,03,01,16.10
2017,09,04,03,02,16.10
2017,09,04,03,03,16.10
2017,09,04,03,04,16.10
2017,09,04,03,05,16.10
2017,09,04,03,06,16.10
2017,09,04,03,07,16.10
2017,09,04,03,08,16.00
2017,09,04,03,09,16.00
2017,09,04,03,10,16.00
2017,09,04,03,11,16.10
2017,09,04,03,12,16.10
2017,09,04,03,13,16.10
2017,09,04,03,14,16.10
2017,09,04,03,15,16.10
2017,09,04,03,16,16.10
2017,09,04,03,17,16.20
2017,09,04,03,18,16.20
2017,09,04,03,19,16.20
2017,09,04,03,20,16.20
2017,09,04,03,21,16.20
2017,09,04,03,22,16.10
2017,09,04,03,23,16.10
2017,09,04,03,24,16.10
2017,09,04,03,25,16.10
2017,09,04,03,26,16.10
2017,09,04,03,27,16.10
2017,09,04,03,28,16.10
2017,09,04,03,29,16.00
2017,09,04,03,30,16.00
2017,09,04,03,31,16.00
2017,09,04,03,32,15.90
2017,09,04,03,33,15.90
2017,09,04,03,34,15.90
2017,09,04,03,35,15.90
2017,09,04,03,36,15.90
2017,09,04,03,37,15.90
2017,09,04,03,38,15.90
2017,09,04,03,39,15.80
2017,09,04,03,40,15.80
2017,09,04,03,41,15.80
2017,09,04,03,42,15.80
2017,09,04,03,43,15.70
2017,09,04,03,44,15.70
2017,09,04,03,45,15.70
2017,09,04,03,46,15.70
2017,09,04,03,47,15.70
2017,09,04,03,48,15.70
2017,09,04,03,49,15.60
2017,09,04,03,50,15.60
2017,09,04,03,51,15.60
2017,09,04,03,52,15.60
2017,09,04,03,53,15.60
2017,09,04,03,54,15.60
2017,09,04,03,55,15.60
2017,09,04,03,56,15.60
2017,09,04,03,57,15.60
2017,09,04,03,58,15.70
2017,09,04,03,59,15.70
2017,09,04,04,00,15.70
2017,09,04,04,01,15.60
2017,09,04,04,02,15.60
2017,09,04,04,03,15.60
2017,09,04,04,04,15.60
2017,09,04,04,05,15.60
2017,09,04,04,06,15.50
2017,09,04,04,07,15.50
2017,09,04,04,08,15.40
2017,09,04,04,09,15.40
2017,09,04,04,10,15.40
2017,09,04,04,11,15.40
2017,09,04,04,12,15.40
2017,09,04,04,13,15.40
2017,09,04,04,14,15.40
2017,09,04,04,15,15.40
2017,09,04,04,16,15.40
2017,09,04,04,17,15.40
2017,09,04,04,18,15.40
2017,09,04,04,19,15.40
2017,09,04,04,20,15.40
2017,09,04,04,21,15.40
2017,09,04,04,22,15.40
2017,09,04,04,23,15.50
2017,09,04,04,24,15.40
2017,09,04,04,25,15.50
2017,09,04,04,26,15.50
2017,09,04,04,27,15.50
2017,09,04,04,28,15.50
2017,09,04,04,29,15.50
2017,09,04,04,30,15.50
2017,09,04,04,31,15.60
2017,09,04,04,32,15.60
2017,09,04,04,33,15.70
2017,09,04,04,34,15.70
2017,09,04,04,35,15.80
2017,09,04,04,36,15.80
2017,09,04,04,37,15.80
2017,09,04,04,38,15.80
2017,09,04,04,39,15.80
2017,09,04,04,40,15.80
2017,09,04,04,41,15.80
2017,09,04,04,42,15.80
2017,09,04,04,43,15.80
2017,09,04,04,44,15.80
2017,09,04,04,45,15.70
2017,09,04,04,46,15.70
2017,09,04,04,47,15.70
2017,09,04,04,48,15.60
2017,09,04,04,49,15.60
2017,09,04,04,50,15.60
2017,09,04,04,51,15.50
2017,09,04,04,52,15.60
2017,09,04,04,53,15.60
2017,09,04,04,54,15.60
2017,09,04,04,55,15.70
2017,09,04,04,56,15.70
2017,09,04,04,57,15.80
2017,09,04,04,58,15.80
2017,09,04,04,59,15.90
2017,09,04,05,00,16.00
2017,09,04,05,01,16.10
2017,09,04,05,02,16.10
2017,09,04,05,03,16.20
2017,09,04,05,04,16.20
2017,09,04,05,05,16.20
2017,09,04,05,06,16.20
2017,09,04,05,07,16.20
2017,09,04,05,08,16.20
2017,09,04,05,09,16.30
2017,09,04,05,10,16.30
2017,09,04,05,11,16.30
2017,09,04,05,12,16.30
2017,09,04,05,13,16.30
2017,09,04,05,14,16.30
2017,09,04,05,15,16.30
2017,09,04,05,16,16.30
2017,09,04,05,17,16.20
2017,09,04,05,18,16.20
2017,09,04,05,19,16.20
2017,09,04,05,20,16.20
2017,09,04,05,21,16.20
2017,09,04,05,22,16.20
2017,09,04,05,23,16.10
2017,09,04,05,24,16.10
2017,09,04,05,25,16.10
2017,09,04,05,26,16.10
2017,09,04,05,27,16.10
2017,09,04,05,28,16.00
2017,09,04,05,29,16.00
2017,09,04,05,30,15.90
2017,09,04,05,31,15.90
2017,09,04,05,32,15.90
2017,09,04,05,33,15.90
2017,09,04,05,34,15.80
2017,09,04,05,35,15.80
2017,09,04,05,36,15.80
2017,09,04,05,37,15.80
2017,09,04,05,38,15.70
2017,09,04,05,39,15.70
2017,09,04,05,40,15.70
2017,09,04,05,41,15.60
2017,09,04,05,42,15.60
2017,09,04,05,43,15.60
2017,09,04,05,44,15.60
2017,09,04,05,45,15.60
2017,09,04,05,46,15.50
2017,09,04,05,47,15.50
2017,09,04,05,48,15.50
2017,09,04,05,49,15.60
2017,09,04,05,50,15.70
2017,09,04,05,51,15.80
2017,09,04,05,52,15.80
2017,09,04,05,53,15.80
2017,09,04,05,54,15.80
2017,09,04,05,55,15.80
2017,09,04,05,56,15.90
2017,09,04,05,57,15.90
2017,09,04,05,58,15.90
2017,09,04,05,59,15.90
2017,09,04,06,00,15.80
2017,09,04,06,01,15.80
2017,09,04,06,02,15.80
2017,09,04,06,03,15.80
2017,09,04,06,04,15.70
2017,09,04,06,05,15.70
2017,09,04,06,06,15.80
2017,09,04,06,07,15.80
2017,09,04,06,08,15.80
2017,09,04,06,09,15.80
2017,09,04,06,10,15.80
2017,09,04,06,11,15.80
2017,09,04,06,12,15.80
2017,09,04,06,13,15.80
2017,09,04,06,14,15.70
2017,09,04,06,15,15.70
2017,09,04,06,16,15.70
2017,09,04,06,17,15.70
2017,09,04,06,18,15.60
2017,09,04,06,19,15.60
2017,09,04,06,20,15.50
2017,09,04,06,21,15.50
2017,09,04,06,22,15.40
2017,09,04,06,23,15.30
2017,09,04,06,24,15.30
2017,09,04,06,25,15.20
2017,09,04,06,26,15.20
2017,09,04,06,27,15.20
2017,09,04,06,28,15.20
2017,09,04,06,29,15.30
2017,09,04,06,30,15.40
2017,09,04,06,31,15.50
2017,09,04,06,32,15.60
2017,09,04,06,33,15.70
2017,09,04,06,34,15.70
2017,09,04,06,35,15.80
2017,09,04,06,36,15.80
2017,09,04,06,37,15.80
2017,09,04,06,38,15.80
2017,09,04,06,39,15.80
2017,09,04,06,40,15.90
2017,09,04,06,41,15.90
2017,09,04,06,42,16.00
2017,09,04,06,43,16.00
2017,09,04,06,44,16.10
2017,09,04,06,45,16.10
2017,09,04,06,46,16.10
2017,09,04,06,47,16.10
2017,09,04,06,48,16.10
2017,09,04,06,49,16.10
2017,09,04,06,50,16.10
2017,09,04,06,51,16.10
2017,09,04,06,52,16.10
2017,09,04,06,53,16.00
2017,09,04,06,54,16.00
2017,09,04,06,55,15.90
2017,09,04,06,56,15.90
2017,09,04,06,57,15.90
2017,09,04,06,58,15.90
2017,09,04,06,59,15.90
2017,09,04,07,00,15.80
2017,09,04,07,01,15.70
2017,09,04,07,02,15.70
2017,09,04,07,03,15.70
2017,09,04,07,04,15.70
2017,09,04,07,05,15.70
2017,09,04,07,06,15.70
2017,09,04,07,07,15.70
2017,09,04,07,08,15.70
2017,09,04,07,09,15.80
2017,09,04,07,10,15.80
2017,09,04,07,11,15.90
2017,09,04,07,12,16.00
2017,09,04,07,13,16.00
2017,09,04,07,14,16.10
2017,09,04,07,15,16.20
2017,09,04,07,16,16.30
2017,09,04,07,17,16.30
2017,09,04,07,18,16.40
2017,09,04,07,19,16.40
2017,09,04,07,20,16.40
2017,09,04,07,21,16.40
2017,09,04,07,22,16.40
2017,09,04,07,23,16.40
2017,09,04,07,24,16.50
2017,09,04,07,25,16.50
2017,09,04,07,26,16.50
2017,09,04,07,27,16.50
2017,09,04,07,28,16.50
2017,09,04,07,29,16.50
2017,09,04,07,30,16.60
2017,09,04,07,31,16.60
2017,09,04,07,32,16.60
2017,09,04,07,33,16.60
2017,09,04,07,34,16.70
2017,09,04,07,35,16.70
2017,09,04,07,36,16.70
2017,09,04,07,37,16.80
2017,09,04,07,38,16.80
2017,09,04,07,39,16.80
2017,09,04,07,40,16.90
2017,09,04,07,41,16.90
2017,09,04,07,42,17.00
2017,09,04,07,43,17.00
2017,09,04,07,44,17.10
2017,09,04,07,45,17.10
2017,09,04,07,46,17.20
2017,09,04,07,47,17.20
2017,09,04,07,48,17.20
2017,09,04,07,49,17.30
2017,09,04,07,50,17.30
2017,09,04,07,51,17.30
2017,09,04,07,52,17.30
2017,09,04,07,53,17.30
2017,09,04,07,54,17.40
2017,09,04,07,55,17.40
2017,09,04,07,56,17.40
2017,09,04,07,57,17.50
2017,09,04,07,58,17.50
2017,09,04,07,59,17.50
2017,09,04,08,00,17.50
2017,09,04,08,01,17.50
2017,09,04,08,02,17.60
2017,09,04,08,03,17.60
2017,09,04,08,04,17.60
2017,09,04,08,05,17.60
2017,09,04,08,06,17.60
2017,09,04,08,07,17.70
2017,09,04,08,08,17.80
2017,09,04,08,09,17.80
2017,09,04,08,10,17.80
2017,09,04,08,11,17.90
2017,09,04,08,12,18.00
2017,09,04,08,13,18.10
2017,09,04,08,14,18.20
2017,09,04,08,15,18.40
2017,09,04,08,16,18.60
2017,09,04,08,17,18.70
2017,09,04,08,18,18.80
2017,09,04,08,19,18.80
2017,09,04,08,20,18.90
2017,09,04,08,21,19.00
2017,09,04,08,22,19.20
2017,09,04,08,23,19.30
2017,09,04,08,24,19.50
2017,09,04,08,25,19.70
2017,09,04,08,26,19.90
2017,09,04,08,27,20.10
2017,09,04,08,28,20.20
2017,09,04,08,29,20.30
2017,09,04,08,30,20.40
2017,09,04,08,31,20.60
2017,09,04,08,32,20.70
2017,09,04,08,33,20.80
2017,09,04,08,34,20.90
2017,09,04,08,35,21.00
2017,09,04,08,36,21.10
2017,09,04,08,37,21.20
2017,09,04,08,38,21.30
2017,09,04,08,39,21.30
2017,09,04,08,40,21.40
2017,09,04,08,41,21.50
2017,09,04,08,42,21.60
2017,09,04,08,43,21.70
2017,09,04,08,44,21.80
2017,09,04,08,45,21.80
2017,09,04,08,46,21.90
2017,09,04,08,47,22.00
2017,09,04,08,48,22.00
2017,09,04,08,49,22.10
2017,09,04,08,50,22.20
2017,09,04,08,51,22.30
2017,09,04,08,52,22.40
2017,09,04,08,53,22.50
2017,09,04,08,54,22.60
2017,09,04,08,55,22.60
2017,09,04,08,56,22.60
2017,09,04,08,57,22.60
2017,09,04,08,58,22.60
2017,09,04,08,59,22.60
2017,09,04,09,00,22.60
2017,09,04,09,01,22.60
2017,09,04,09,02,22.60
2017,09,04,09,03,22.60
2017,09,04,09,04,22.60
2017,09,04,09,05,22.70
2017,09,04,09,06,22.80
2017,09,04,09,07,22.80
2017,09,04,09,08,22.90
2017,09,04,09,09,22.90
2017,09,04,09,10,23.00
2017,09,04,09,11,23.10
2017,09,04,09,12,23.10
2017,09,04,09,13,23.20
2017,09,04,09,14,23.30
2017,09,04,09,15,23.30
2017,09,04,09,16,23.40
2017,09,04,09,17,23.40
2017,09,04,09,18,23.40
2017,09,04,09,19,23.30
2017,09,04,09,20,23.30
2017,09,04,09,21,23.40
2017,09,04,09,22,23.40
2017,09,04,09,23,23.40
2017,09,04,09,24,23.40
2017,09,04,09,25,23.40
2017,09,04,09,26,23.40
2017,09,04,09,27,23.40
2017,09,04,09,28,23.50
2017,09,04,09,29,23.50
2017,09,04,09,30,23.50
2017,09,04,09,31,23.60
2017,09,04,09,32,23.60
2017,09,04,09,33,23.70
2017,09,04,09,34,23.70
2017,09,04,09,35,23.70
2017,09,04,09,36,23.70
2017,09,04,09,37,23.80
2017,09,04,09,38,23.80
2017,09,04,09,39,23.80
2017,09,04,09,40,23.80
2017,09,04,09,41,23.90
2017,09,04,09,42,23.90
2017,09,04,09,43,23.90
2017,09,04,09,44,23.90
2017,09,04,09,45,23.90
2017,09,04,09,46,23.90
2017,09,04,09,47,24.00
2017,09,04,09,48,24.10
2017,09,04,09,49,24.20
2017,09,04,09,50,24.20
2017,09,04,09,51,24.30
2017,09,04,09,52,24.30
2017,09,04,09,53,24.40
2017,09,04,09,54,24.50
2017,09,04,09,55,24.50
2017,09,04,09,56,24.60
2017,09,04,09,57,24.70
2017,09,04,09,58,24.70
2017,09,04,09,59,24.70
2017,09,04,10,00,24.70
2017,09,04,10,01,24.70
2017,09,04,10,02,24.70
2017,09,04,10,03,24.70
2017,09,04,10,04,24.70
2017,09,04,10,05,24.80
2017,09,04,10,06,24.80
2017,09,04,10,07,24.80
2017,09,04,10,08,24.80
2017,09,04,10,09,24.80
2017,09,04,10,10,25.00
2017,09,04,10,11,25.10
2017,09,04,10,12,25.20
2017,09,04,10,13,25.30
2017,09,04,10,14,25.30
2017,09,04,10,15,25.40
2017,09,04,10,16,25.50
2017,09,04,10,17,25.60
2017,09,04,10,18,25.70
2017,09,04,10,19,25.90
2017,09,04,10,20,26.00
2017,09,04,10,21,26.00
2017,09,04,10,22,26.10
2017,09,04,10,23,26.10
2017,09,04,10,24,26.20
2017,09,04,10,25,26.20
2017,09,04,10,26,26.30
2017,09,04,10,27,26.40
2017,09,04,10,28,26.40
2017,09,04,10,29,26.50
2017,09,04,10,30,26.50
2017,09,04,10,31,26.40
2017,09,04,10,32,26.40
2017,09,04,10,33,26.40
2017,09,04,10,34,26.40
2017,09,04,10,35,26.40
2017,09,04,10,36,26.40
2017,09,04,10,37,26.40
2017,09,04,10,38,26.40
2017,09,04,10,39,26.40
2017,09,04,10,40,26.50
2017,09,04,10,41,26.40
2017,09,04,10,42,26.40
2017,09,04,10,43,26.50
2017,09,04,10,44,26.50
2017,09,04,10,45,26.50
2017,09,04,10,46,26.50
2017,09,04,10,47,26.60
2017,09,04,10,48,26.60
2017,09,04,10,49,26.60
2017,09,04,10,50,26.60
2017,09,04,10,51,26.50
2017,09,04,10,52,26.50
2017,09,04,10,53,26.40
2017,09,04,10,54,26.50
2017,09,04,10,55,26.50
2017,09,04,10,56,26.60
2017,09,04,10,57,26.70
2017,09,04,10,58,26.80
2017,09,04,10,59,26.80
2017,09,04,11,00,27.00
2017,09,04,11,01,27.10
2017,09,04,11,02,27.20
2017,09,04,11,03,27.20
2017,09,04,11,04,27.10
2017,09,04,11,05,27.10
2017,09,04,11,06,27.10
2017,09,04,11,07,27.10
2017,09,04,11,08,27.20
2017,09,04,11,09,27.20
2017,09,04,11,10,27.30
2017,09,04,11,11,27.30
2017,09,04,11,12,27.30
2017,09,04,11,13,27.30
2017,09,04,11,14,27.40
2017,09,04,11,15,27.40
2017,09,04,11,16,27.60
2017,09,04,11,17,27.60
2017,09,04,11,18,27.60
2017,09,04,11,19,27.50
2017,09,04,11,20,27.40
2017,09,04,11,21,27.40
2017,09,04,11,22,27.40
2017,09,04,11,23,27.30
2017,09,04,11,24,27.30
2017,09,04,11,25,27.30
2017,09,04,11,26,27.40
2017,09,04,11,27,27.50
2017,09,04,11,28,27.60
2017,09,04,11,29,27.70
2017,09,04,11,30,27.80
2017,09,04,11,31,27.90
2017,09,04,11,32,28.00
2017,09,04,11,33,28.00
2017,09,04,11,34,28.10
2017,09,04,11,35,28.20
2017,09,04,11,36,28.20
2017,09,04,11,37,28.20
2017,09,04,11,38,28.20
2017,09,04,11,39,28.10
2017,09,04,11,40,28.00
2017,09,04,11,41,27.90
2017,09,04,11,42,27.80
2017,09,04,11,43,27.80
2017,09,04,11,44,27.80
2017,09,04,11,45,27.70
2017,09,04,11,46,27.70
2017,09,04,11,47,27.70
2017,09,04,11,48,27.80
2017,09,04,11,49,27.80
2017,09,04,11,50,27.90
2017,09,04,11,51,27.90
2017,09,04,11,52,27.90
2017,09,04,11,53,27.90
2017,09,04,11,54,27.90
2017,09,04,11,55,27.90
2017,09,04,11,56,27.90
2017,09,04,11,57,27.90
2017,09,04,11,58,27.90
2017,09,04,11,59,27.90
2017,09,04,12,00,27.90
2017,09,04,12,01,27.90
2017,09,04,12,02,27.90
2017,09,04,12,03,27.90
2017,09,04,12,04,27.90
2017,09,04,12,05,28.00
2017,09,04,12,06,28.10
2017,09,04,12,07,28.10
2017,09,04,12,08,28.20
2017,09,04,12,09,28.20
2017,09,04,12,10,28.30
2017,09,04,12,11,28.40
2017,09,04,12,12,28.60
2017,09,04,12,13,28.70
2017,09,04,12,14,28.90
2017,09,04,12,15,29.10
2017,09,04,12,16,29.30
2017,09,04,12,17,29.40
2017,09,04,12,18,29.50
2017,09,04,12,19,29.60
2017,09,04,12,20,29.70
2017,09,04,12,21,29.70
2017,09,04,12,22,29.70
2017,09,04,12,23,29.80
2017,09,04,12,24,29.80
2017,09,04,12,25,29.90
2017,09,04,12,26,30.10
2017,09,04,12,27,30.20
2017,09,04,12,28,30.30
2017,09,04,12,29,30.50
2017,09,04,12,30,30.70
2017,09,04,12,31,30.80
2017,09,04,12,32,30.90
2017,09,04,12,33,30.90
2017,09,04,12,34,30.80
2017,09,04,12,35,30.80
2017,09,04,12,36,30.80
2017,09,04,12,37,30.80
2017,09,04,12,38,30.50
2017,09,04,12,39,30.40
2017,09,04,12,40,30.30
2017,09,04,12,41,30.00
2017,09,04,12,42,29.80
2017,09,04,12,43,29.60
2017,09,04,12,44,29.50
2017,09,04,12,45,29.40
2017,09,04,12,46,29.30
2017,09,04,12,47,29.20
2017,09,04,12,48,29.00
2017,09,04,12,49,28.90
2017,09,04,12,50,28.80
2017,09,04,12,51,28.70
2017,09,04,12,52,28.60
2017,09,04,12,53,28.70
2017,09,04,12,54,28.70
2017,09,04,12,55,28.80
2017,09,04,12,56,28.90
2017,09,04,12,57,29.00
2017,09,04,12,58,29.00
2017,09,04,12,59,29.00
2017,09,04,13,00,29.00
2017,09,04,13,01,29.10
2017,09,04,13,02,29.10
2017,09,04,13,03,29.10
2017,09,04,13,04,29.10
2017,09,04,13,05,29.10
2017,09,04,13,06,29.20
2017,09,04,13,07,29.40
2017,09,04,13,08,29.50
2017,09,04,13,09,29.40
2017,09,04,13,10,29.40
2017,09,04,13,11,29.30
2017,09,04,13,12,29.10
2017,09,04,13,13,29.00
2017,09,04,13,14,28.90
2017,09,04,13,15,28.90
2017,09,04,13,16,28.90
2017,09,04,13,17,28.90
2017,09,04,13,18,28.90
2017,09,04,13,19,28.80
2017,09,04,13,20,28.80
2017,09,04,13,21,28.90
2017,09,04,13,22,28.90
2017,09,04,13,23,28.90
2017,09,04,13,24,29.00
2017,09,04,13,25,29.10
2017,09,04,13,26,29.20
2017,09,04,13,27,29.30
2017,09,04,13,28,29.40
2017,09,04,13,29,29.40
2017,09,04,13,30,29.30
2017,09,04,13,31,29.30
2017,09,04,13,32,29.40
2017,09,04,13,33,29.50
2017,09,04,13,34,29.60
2017,09,04,13,35,29.80
2017,09,04,13,36,29.80
2017,09,04,13,37,29.70
2017,09,04,13,38,29.50
2017,09,04,13,39,29.40
2017,09,04,13,40,29.20
2017,09,04,13,41,29.10
2017,09,04,13,42,29.00
2017,09,04,13,43,28.90
2017,09,04,13,44,28.80
2017,09,04,13,45,28.70
2017,09,04,13,46,28.70
2017,09,04,13,47,28.70
2017,09,04,13,48,28.70
2017,09,04,13,49,28.70
2017,09,04,13,50,28.70
2017,09,04,13,51,28.80
2017,09,04,13,52,28.90
2017,09,04,13,53,29.00
2017,09,04,13,54,29.10
2017,09,04,13,55,29.20
2017,09,04,13,56,29.30
2017,09,04,13,57,29.40
2017,09,04,13,58,29.50
2017,09,04,13,59,29.70
2017,09,04,14,00,29.80
2017,09,04,14,01,29.80
2017,09,04,14,02,29.80
2017,09,04,14,03,29.80
2017,09,04,14,04,29.70
2017,09,04,14,05,29.70
2017,09,04,14,06,29.60
2017,09,04,14,07,29.50
2017,09,04,14,08,29.50
2017,09,04,14,09,29.60
2017,09,04,14,10,29.70
2017,09,04,14,11,29.70
2017,09,04,14,12,29.80
2017,09,04,14,13,29.90
2017,09,04,14,14,29.90
2017,09,04,14,15,30.00
2017,09,04,14,16,30.00
2017,09,04,14,17,30.00
2017,09,04,14,18,30.00
2017,09,04,14,19,30.10
2017,09,04,14,20,30.20
2017,09,04,14,21,30.30
2017,09,04,14,22,30.40
2017,09,04,14,23,30.60
2017,09,04,14,24,30.70
2017,09,04,14,25,30.70
2017,09,04,14,26,30.60
2017,09,04,14,27,30.70
2017,09,04,14,28,30.70
2017,09,04,14,29,30.70
2017,09,04,14,30,30.70
2017,09,04,14,31,30.60
2017,09,04,14,32,30.50
2017,09,04,14,33,30.50
2017,09,04,14,34,30.50
2017,09,04,14,35,30.40
2017,09,04,14,36,30.50
2017,09,04,14,37,30.60
2017,09,04,14,38,30.60
2017,09,04,14,39,30.60
2017,09,04,14,40,30.60
2017,09,04,14,41,30.70
2017,09,04,14,42,30.70
2017,09,04,14,43,30.80
2017,09,04,14,44,30.80
2017,09,04,14,45,30.80
2017,09,04,14,46,30.80
2017,09,04,14,47,30.70
2017,09,04,14,48,30.70
2017,09,04,14,49,30.80
2017,09,04,14,50,30.70
2017,09,04,14,51,30.80
2017,09,04,14,52,30.80
2017,09,04,14,53,30.80
2017,09,04,14,54,30.80
2017,09,04,14,55,30.80
2017,09,04,14,56,30.90
2017,09,04,14,57,31.00
2017,09,04,14,58,31.10
2017,09,04,14,59,31.20
2017,09,04,15,00,31.20
2017,09,04,15,01,31.20
2017,09,04,15,02,31.20
2017,09,04,15,03,31.10
2017,09,04,15,04,31.10
2017,09,04,15,05,31.10
2017,09,04,15,06,31.20
2017,09,04,15,07,31.20
2017,09,04,15,08,31.20
2017,09,04,15,09,31.10
2017,09,04,15,10,31.10
2017,09,04,15,11,31.10
2017,09,04,15,12,31.10
2017,09,04,15,13,31.10
2017,09,04,15,14,31.20
2017,09,04,15,15,31.30
2017,09,04,15,16,31.40
2017,09,04,15,17,31.40
2017,09,04,15,18,31.10
2017,09,04,15,19,30.80
2017,09,04,15,20,30.70
2017,09,04,15,21,30.70
2017,09,04,15,22,30.60
2017,09,04,15,23,30.50
2017,09,04,15,24,30.50
2017,09,04,15,25,30.40
2017,09,04,15,26,30.50
2017,09,04,15,27,30.50
2017,09,04,15,28,30.40
2017,09,04,15,29,30.40
2017,09,04,15,30,30.30
2017,09,04,15,31,30.30
2017,09,04,15,32,30.30
2017,09,04,15,33,30.20
2017,09,04,15,34,30.10
2017,09,04,15,35,30.00
2017,09,04,15,36,29.80
2017,09,04,15,37,29.60
2017,09,04,15,38,29.50
2017,09,04,15,39,29.40
2017,09,04,15,40,29.30
2017,09,04,15,41,29.30
2017,09,04,15,42,29.30
2017,09,04,15,43,29.30
2017,09,04,15,44,29.40
2017,09,04,15,45,29.40
2017,09,04,15,46,29.40
2017,09,04,15,47,29.40
2017,09,04,15,48,29.40
2017,09,04,15,49,29.30
2017,09,04,15,50,29.30
2017,09,04,15,51,29.30
2017,09,04,15,52,29.30
2017,09,04,15,53,29.40
2017,09,04,15,54,29.40
2017,09,04,15,55,29.30
2017,09,04,15,56,29.20
2017,09,04,15,57,29.00
2017,09,04,15,58,28.90
2017,09,04,15,59,28.80
2017,09,04,16,00,28.80
2017,09,04,16,01,28.80
2017,09,04,16,02,28.80
2017,09,04,16,03,28.80
2017,09,04,16,04,28.80
2017,09,04,16,05,28.90
2017,09,04,16,06,28.90
2017,09,04,16,07,29.00
2017,09,04,16,08,29.10
2017,09,04,16,09,29.10
2017,09,04,16,10,29.10
2017,09,04,16,11,29.10
2017,09,04,16,12,29.00
2017,09,04,16,13,28.90
2017,09,04,16,14,28.90
2017,09,04,16,15,28.80
2017,09,04,16,16,28.70
2017,09,04,16,17,28.70
2017,09,04,16,18,28.60
2017,09,04,16,19,28.60
2017,09,04,16,20,28.60
2017,09,04,16,21,28.60
2017,09,04,16,22,28.50
2017,09,04,16,23,28.50
2017,09,04,16,24,28.40
2017,09,04,16,25,28.40
2017,09,04,16,26,28.40
2017,09,04,16,27,28.40
2017,09,04,16,28,28.50
2017,09,04,16,29,28.50
2017,09,04,16,30,28.60
2017,09,04,16,31,28.60
2017,09,04,16,32,28.60
2017,09,04,16,33,28.70
2017,09,04,16,34,28.70
2017,09,04,16,35,28.70
2017,09,04,16,36,28.70
2017,09,04,16,37,28.70
2017,09,04,16,38,28.70
2017,09,04,16,39,28.60
2017,09,04,16,40,28.60
2017,09,04,16,41,28.60
2017,09,04,16,42,28.60
2017,09,04,16,43,28.50
2017,09,04,16,44,28.50
2017,09,04,16,45,28.50
2017,09,04,16,46,28.40
2017,09,04,16,47,28.40
2017,09,04,16,48,28.40
2017,09,04,16,49,28.50
2017,09,04,16,50,28.40
2017,09,04,16,51,28.40
2017,09,04,16,52,28.40
2017,09,04,16,53,28.40
2017,09,04,16,54,28.40
2017,09,04,16,55,28.30
2017,09,04,16,56,28.30
2017,09,04,16,57,28.30
2017,09,04,16,58,28.30
2017,09,04,16,59,28.30
2017,09,04,17,00,28.30
2017,09,04,17,01,28.30
2017,09,04,17,02,28.30
2017,09,04,17,03,28.30
2017,09,04,17,04,28.40
2017,09,04,17,05,28.40
2017,09,04,17,06,28.50
2017,09,04,17,07,28.50
2017,09,04,17,08,28.60
2017,09,04,17,09,28.70
2017,09,04,17,10,28.70
2017,09,04,17,11,28.80
2017,09,04,17,12,28.80
2017,09,04,17,13,28.90
2017,09,04,17,14,28.90
2017,09,04,17,15,29.00
2017,09,04,17,16,29.00
2017,09,04,17,17,28.90
2017,09,04,17,18,28.90
2017,09,04,17,19,28.80